Weather Roundup
Issued by NWS Chicago, IL

Home | Current Version | Previous Version | Graphics & Text | Print | Product List | Glossary On
Versions: 1 2 3 4 5 6 7 8 9 10 11 12 13 14 15 16 17 18 19 20 21 22 23 24 25 26 27 28 29 30 31 32 33 34 35 36 37 38 39 40 41 42 43 44 45 46 47 48 49 50
000
NZUS59 KLOT 180612
HRRLOT

CHICAGO AREA WEATHER ROUNDUP
NATIONAL WEATHER SERVICE CHICAGO/ROMEOVILLE IL
1200 AM CST WED JAN 18 2017

NOTE: "FAIR" INDICATES FEW OR NO CLOUDS BELOW 12,000 FEET WITH NO
SIGNIFICANT WEATHER AND/OR OBSTRUCTIONS TO VISIBILITY.

* THESE STATIONS ARE NOT UNDER NWS QUALITY CONTROL. THEY ALSO MAY NOT
  REPORT WEATHER SUCH AS PRECIPITATION OR FOG.

ILZ005-006-012>014-019>023-180700-
NORTHEAST ILLINOIS

CITY           SKY/WX    TMP DP  RH WIND       PRES   REMARKS
OHARE          CLOUDY    35  33  92 W10       30.00R WCI  27
6HR MIN TEMP:  35; 6HR MAX TEMP:  36; 6HR PCP: TRACE;

MIDWAY         CLOUDY    33  33 100 W8        30.02R FOG     WCI  26
6HR MIN TEMP:  33; 6HR MAX TEMP:  35; 6HR PCP: TRACE;

AURORA         CLOUDY    35  33  92 W12       30.03R FOG     WCI  27
6HR MIN TEMP:  35; 6HR MAX TEMP:  36;

LANSING*       CLOUDY    34  34 100 W12       30.02S FOG     WCI  26
JOLIET*        CLOUDY    36  34  95 W6        30.05R FOG
WAUKEGAN       CLOUDY    35  33  92 VRB6      29.99R FOG     WCI  30
6HR MIN TEMP:  34; 6HR MAX TEMP:  35; 6HR PCP:  0.03;

DUPAGE AIRPORT CLOUDY    34  32  92 W10       30.01R FOG     WCI  26
6HR MIN TEMP:  34; 6HR MAX TEMP:  35;

WHEELING       CLOUDY    35  33  92 W8        30.02R WCI  29
6HR MIN TEMP:  35; 6HR MAX TEMP:  36; 6HR PCP: TRACE;

KANKAKEE*      CLOUDY    34  34  98 W9        30.06R FOG     WCI  27
MORRIS*        CLOUDY    34  33  96 W12       30.04S FOG     WCI  25
LEWIS AIRPORT* CLOUDY    34  34 100 W9        30.03S FOG     WCI  26
NORTHERLY ISL    N/A     35  33  92 W13         N/A  WCI  26
$$

WIZ051-052-058>065-066-070>072-180700-
SOUTHEAST WISCONSIN

CITY           SKY/WX    TMP DP  RH WIND       PRES   REMARKS
MILWAUKEE      CLOUDY    36  33  89 W9        29.98R
6HR MIN TEMP:  36; 6HR MAX TEMP:  37; 6HR PCP: TRACE;

KENOSHA*       CLOUDY    34  33  96 W10       29.99R FOG     WCI  26
RACINE*        CLOUDY    35  32  88 W9        30.00R WCI  28
WAUKESHA       CLOUDY    32  32 100 W7        29.99R FOG     WCI  26
WEST BEND      CLOUDY    32  32 100 W8        29.96S FOG     WCI  25
$$

INZ001>003-010>013-019-020-180700-
NORTHWEST INDIANA

CITY           SKY/WX    TMP DP  RH WIND       PRES   REMARKS
GARY*          CLOUDY    37  34  90 W9G16     30.03R FOG
6HR MIN TEMP:  37; 6HR MAX TEMP:  38;

MICHIGAN CITY* NOT AVBL
RENSSELAER*    NOT AVBL
VALPARAISO     CLOUDY    36  34  92 W12       30.01S
$$

LMZ740>746-180700-
SOUTHERN LAKE MICHIGAN

STATION/POSITION TIME  SKY/WX   TEMP WIND        PRES    VSBY
                                AIR  DIR/SP/G
                 (UTC)          (F)  (DEG/KT/KT) (MB)    (MI)
HARRISON CRIB    0540            37  280/ 17/ 19   N/A
BURNHAM HARBOR   0600            35  270/  8/ 13   N/A
CALUMET HARBOR   0542            35  260/  5/ 12 1015.8R
BURNS HARBOR     0540            35  260/ 14/ 16 1016.9R
MICHIGAN CITY    NOT AVBL
$$

ABBREVIATIONS USED IN REMARKS
   TC - TEMPERATURE IN CELSIUS
  WCI - WIND CHILL INDEX
   HX - HEAT INDEX
  VSB - VISIBILITY
$$




USA.gov is the U.S. government's official web portal to all federal, state and local government web resources and services.